"Sample Date","Sample Time","Sample Value","Units","Flow Rate","Sample Interval","Number Channels","Micron Size 0","Counts/Channel 0","Micron Size 1","Counts/Channel 1","Micron Size 2","Counts/Channel 2","Micron Size 3","Counts/Channel 3","Micron Size 4","Counts/Channel 4","Micron Size 5","Counts/Channel 5","Micron Size 6","Counts/Channel 6","Micron Size 7","Counts/Channel 7","Micron Size 8","Counts/Channel 8","Micron Size 9","Counts/Channel 9","Micron Size 10","Counts/Channel 10","Micron Size 11","Counts/Channel 11","Micron Size 12","Counts/Channel 12","Micron Size 13","Counts/Channel 13","Micron Size 14","Counts/Channel 14","Micron Size 15","Counts/Channel 15","Micron Size 16","Counts/Channel 16","Micron Size 17","Counts/Channel 17","Micron Size 18","Counts/Channel 18","Micron Size 19","Counts/Channel 19","Micron Size 20","Counts/Channel 20","Micron Size 21","Counts/Channel 21","Micron Size 22","Counts/Channel 22","Micron Size 23","Counts/Channel 23","Micron Size 24","Counts/Channel 24","Micron Size 25","Counts/Channel 25","Micron Size 26","Counts/Channel 26","Micron Size 27","Counts/Channel 27","Micron Size 28","Counts/Channel 28","Micron Size 29","Counts/Channel 29","Micron Size 30","Counts/Channel 30","Micron Size 31","Counts/Channel 31"
"04/07/08","19:00:04",13513.000,"cc",28288.621,6.00,6,0.100,7889.000,0.200,1715.000,0.300,1427.000,0.500,1622.000,1.000,860.000,5.000,0
"04/07/08","19:00:10",14564.000,"cc",28252.666,6.00,6,0.100,8164.000,0.200,1992.000,0.300,1638.000,0.500,1867.000,1.000,903.000,5.000,0
"04/07/08","19:00:16",13571.000,"cc",28282.596,6.00,6,0.100,7873.000,0.200,1677.000,0.300,1479.000,0.500,1707.000,1.000,835.000,5.000,0
"04/07/08","19:00:22",13864.000,"cc",28337.973,6.00,6,0.100,8020.000,0.200,1696.000,0.300,1462.000,0.500,1820.000,1.000,866.000,5.000,0
"04/07/08","19:00:28",14469.000,"cc",28273.598,6.00,6,0.100,8272.000,0.200,1830.000,0.300,1505.000,0.500,1968.000,1.000,894.000,5.000,0
"04/07/08","19:00:34",14599.000,"cc",28455.785,6.00,6,0.100,8540.000,0.200,1842.000,0.300,1522.000,0.500,1861.000,1.000,834.000,5.000,0
"04/07/08","19:00:40",13908.000,"cc",28423.412,6.00,6,0.100,8531.000,0.200,1518.000,0.300,1424.000,0.500,1612.000,1.000,823.000,5.000,0
"04/07/08","19:00:46",14819.000,"cc",28342.291,6.00,6,0.100,8584.000,0.200,1793.000,0.300,1607.000,0.500,1922.000,1.000,913.000,5.000,0
"04/07/08","19:00:52",15018.000,"cc",28271.725,6.00,6,0.100,8703.000,0.200,1842.000,0.300,1583.000,0.500,1921.000,1.000,969.000,5.000,0
"04/07/08","19:00:58",16264.000,"cc",28238.279,6.00,6,0.100,9176.000,0.200,2013.000,0.300,1783.000,0.500,2151.000,1.000,1141.000,5.000,0
"04/07/08","19:01:04",16506.000,"cc",28286.820,6.00,6,0.100,9246.000,0.200,2124.000,0.300,1820.000,0.500,2209.000,1.000,1107.000,5.000,0
"04/07/08","19:01:10",16111.000,"cc",28402.949,6.00,6,0.100,9385.000,0.200,1925.000,0.300,1684.000,0.500,2091.000,1.000,1026.000,5.000,0
"04/07/08","19:01:16",14661.000,"cc",28364.969,6.00,6,0.100,9166.000,0.200,1623.000,0.300,1343.000,0.500,1689.000,1.000,840.000,5.000,0
"04/07/08","19:01:22",15034.000,"cc",28301.254,6.00,6,0.100,9397.000,0.200,1703.000,0.300,1441.000,0.500,1696.000,1.000,797.000,5.000,0
"04/07/08","19:01:28",15849.000,"cc",28157.441,6.00,6,0.100,9486.000,0.200,1883.000,0.300,1673.000,0.500,1938.000,1.000,869.000,5.000,0
"04/07/08","19:01:34",15797.000,"cc",28268.199,6.00,6,0.100,9553.000,0.200,1933.000,0.300,1571.000,0.500,1925.000,1.000,815.000,5.000,0
"04/07/08","19:01:40",16078.000,"cc",28396.258,6.00,6,0.100,9692.000,0.200,1841.000,0.300,1629.000,0.500,1924.000,1.000,992.000,5.000,0
"04/07/08","19:01:46",16038.000,"cc",28403.756,6.00,6,0.100,10294.000,0.200,1776.000,0.300,1456.000,0.500,1759.000,1.000,753.000,5.000,0
"04/07/08","19:01:52",18119.000,"cc",28268.613,6.00,6,0.100,11121.000,0.200,2156.000,0.300,1784.000,0.500,2124.000,1.000,934.000,5.000,0
"04/07/08","19:01:58",17204.000,"cc",28314.029,6.00,6,0.100,10770.000,0.200,1974.000,0.300,1590.000,0.500,1968.000,1.000,902.000,5.000,0
"04/07/08","19:02:04",16868.000,"cc",28411.680,6.00,6,0.100,11420.000,0.200,1678.000,0.300,1414.000,0.500,1615.000,1.000,741.000,5.000,0
"04/07/08","19:02:10",16558.000,"cc",28315.320,6.00,6,0.100,11142.000,0.200,1669.000,0.300,1357.000,0.500,1559.000,1.000,831.000,5.000,0
"04/07/08","19:02:16",16728.000,"cc",28297.508,6.00,6,0.100,11191.000,0.200,1731.000,0.300,1373.000,0.500,1605.000,1.000,828.000,5.000,0
"04/07/08","19:02:22",18380.000,"cc",28158.432,6.00,6,0.100,11447.000,0.200,2082.000,0.300,1753.000,0.500,2103.000,1.000,995.000,5.000,0
"04/07/08","19:02:28",17861.000,"cc",28346.029,6.00,6,0.100,11152.000,0.200,1984.000,0.300,1716.000,0.500,1990.000,1.000,1019.000,5.000,0
"04/07/08","19:02:34",17487.000,"cc",28321.752,6.00,6,0.100,11239.000,0.200,1844.000,0.300,1545.000,0.500,1921.000,1.000,938.000,5.000,0
"04/07/08","19:02:40",18833.000,"cc",28199.156,6.00,6,0.100,11634.000,0.200,2190.000,0.300,1787.000,0.500,2192.000,1.000,1030.000,5.000,0
"04/07/08","19:02:46",19594.000,"cc",28225.758,6.00,6,0.100,11894.000,0.200,2367.000,0.300,1992.000,0.500,2325.000,1.000,1016.000,5.000,0
"04/07/08","19:02:52",19411.000,"cc",28339.244,6.00,6,0.100,11964.000,0.200,2263.000,0.300,1878.000,0.500,2267.000,1.000,1039.000,5.000,0
"04/07/08","19:02:58",19017.000,"cc",28323.832,6.00,6,0.100,12025.000,0.200,2131.000,0.300,1766.000,0.500,2135.000,1.000,960.000,5.000,0
"04/07/08","19:03:04",17745.000,"cc",28341.772,6.00,6,0.100,12007.000,0.200,1721.000,0.300,1466.000,0.500,1716.000,1.000,835.000,5.000,0
"04/07/08","19:03:10",17673.000,"cc",28346.930,6.00,6,0.100,11927.000,0.200,1761.000,0.300,1496.000,0.500,1680.000,1.000,809.000,5.000,0
"04/07/08","19:03:16",17092.000,"cc",28518.133,6.00,6,0.100,11796.000,0.200,1581.000,0.300,1339.000,0.500,1612.000,1.000,764.000,5.000,0
"04/07/08","19:03:22",17359.000,"cc",28223.070,6.00,6,0.100,11719.000,0.200,1724.000,0.300,1452.000,0.500,1728.000,1.000,736.000,5.000,0
"04/07/08","19:03:28",15764.000,"cc",28273.422,6.00,6,0.100,11068.000,0.200,1485.000,0.300,1121.000,0.500,1474.000,1.000,616.000,5.000,0
"04/07/08","19:03:34",17508.000,"cc",28302.188,6.00,6,0.100,11589.000,0.200,1845.000,0.300,1498.000,0.500,1741.000,1.000,835.000,5.000,0
"04/07/08","19:03:40",17568.000,"cc",28348.623,6.00,6,0.100,11715.000,0.200,1801.000,0.300,1513.000,0.500,1734.000,1.000,805.000,5.000,0
"04/07/08","19:03:46",17857.000,"cc",28304.023,6.00,6,0.100,11924.000,0.200,1863.000,0.300,1399.000,0.500,1826.000,1.000,845.000,5.000,0
"04/07/08","19:03:52",17719.000,"cc",28248.602,6.00,6,0.100,11920.000,0.200,1725.000,0.300,1481.000,0.500,1728.000,1.000,865.000,5.000,0
"04/07/08","19:03:58",17461.000,"cc",28284.557,6.00,6,0.100,11769.000,0.200,1777.000,0.300,1431.000,0.500,1682.000,1.000,802.000,5.000,0
"04/07/08","19:04:04",17957.000,"cc",28252.252,6.00,6,0.100,11926.000,0.200,1878.000,0.300,1510.000,0.500,1796.000,1.000,847.000,5.000,0
"04/07/08","19:04:10",18555.000,"cc",28530.863,6.00,6,0.100,12132.000,0.200,1993.000,0.300,1640.000,0.500,1853.000,1.000,937.000,5.000,0
"04/07/08","19:04:16",18238.000,"cc",28446.111,6.00,6,0.100,12284.000,0.200,1798.000,0.300,1534.000,0.500,1774.000,1.000,848.000,5.000,0
"04/07/08","19:04:22",18561.000,"cc",28260.914,6.00,6,0.100,12273.000,0.200,1901.000,0.300,1624.000,0.500,1866.000,1.000,897.000,5.000,0
"04/07/08","19:04:28",17071.000,"cc",28279.971,6.00,6,0.100,11624.000,0.200,1744.000,0.300,1339.000,0.500,1584.000,1.000,780.000,5.000,0
"04/07/08","19:04:34",14437.000,"cc",28330.707,6.00,6,0.100,10542.000,0.200,1279.000,0.300,1000.000,0.500,1103.000,1.000,513.000,5.000,0
"04/07/08","19:04:40",14924.000,"cc",28284.330,6.00,6,0.100,10673.000,0.200,1301.000,0.300,1089.000,0.500,1268.000,1.000,593.000,5.000,0
"04/07/08","19:04:46",15495.000,"cc",28246.541,6.00,6,0.100,11067.000,0.200,1371.000,0.300,1157.000,0.500,1294.000,1.000,606.000,5.000,0
"04/07/08","19:04:52",15534.000,"cc",28436.904,6.00,6,0.100,10970.000,0.200,1440.000,0.300,1096.000,0.500,1308.000,1.000,720.000,5.000,0
"04/07/08","19:04:58",14225.000,"cc",28428.912,6.00,6,0.100,10160.000,0.200,1266.000,0.300,1026.000,0.500,1222.000,1.000,551.000,5.000,0
"04/07/08","19:05:04",14549.000,"cc",28255.965,6.00,6,0.100,10263.000,0.200,1342.000,0.300,1046.000,0.500,1257.000,1.000,640.000,5.000,1.000
"04/07/08","19:05:10",16210.000,"cc",28277.156,6.00,6,0.100,11075.000,0.200,1797.000,0.300,1298.000,0.500,1374.000,1.000,666.000,5.000,0
"04/07/08","19:05:16",15289.000,"cc",28216.533,6.00,6,0.100,10643.000,0.200,1502.000,0.300,1127.000,0.500,1358.000,1.000,659.000,5.000,0
"04/07/08","19:05:22",15975.000,"cc",28171.611,6.00,6,0.100,10773.000,0.200,1562.000,0.300,1322.000,0.500,1593.000,1.000,725.000,5.000,0
"04/07/08","19:05:28",17606.000,"cc",28352.205,6.00,6,0.100,11402.000,0.200,1901.000,0.300,1562.000,0.500,1851.000,1.000,890.000,5.000,0
"04/07/08","19:05:34",17691.000,"cc",28369.379,6.00,6,0.100,11656.000,0.200,1821.000,0.300,1575.000,0.500,1767.000,1.000,872.000,5.000,0
"04/07/08","19:05:40",15960.000,"cc",28302.994,6.00,6,0.100,10729.000,0.200,1704.000,0.300,1374.000,0.500,1460.000,1.000,693.000,5.000,0
"04/07/08","19:05:46",12783.000,"cc",28446.981,6.00,6,0.100,8964.000,0.200,1205.000,0.300,937.000,0.500,1124.000,1.000,553.000,5.000,0
"04/07/08","19:05:52",13914.000,"cc",28249.971,6.00,6,0.100,9464.000,0.200,1437.000,0.300,1078.000,0.500,1315.000,1.000,620.000,5.000,0
"04/07/08","19:05:58",15630.000,"cc",28203.652,6.00,6,0.100,9944.000,0.200,1737.000,0.300,1457.000,0.500,1615.000,1.000,877.000,5.000,0
"04/07/08","19:06:04",15285.000,"cc",28546.426,6.00,6,0.100,9996.000,0.200,1664.000,0.300,1353.000,0.500,1527.000,1.000,745.000,5.000,0
"04/07/08","19:06:10",15063.000,"cc",28278.211,6.00,6,0.100,9891.000,0.200,1587.000,0.300,1297.000,0.500,1544.000,1.000,744.000,5.000,0
"04/07/08","19:06:16",13383.000,"cc",28426.758,6.00,6,0.100,8809.000,0.200,1424.000,0.300,1138.000,0.500,1358.000,1.000,654.000,5.000,0
"04/07/08","19:06:22",12458.000,"cc",28271.244,6.00,6,0.100,8243.000,0.200,1359.000,0.300,1072.000,0.500,1176.000,1.000,608.000,5.000,0
"04/07/08","19:06:28",13648.000,"cc",28239.102,6.00,6,0.100,8779.000,0.200,1571.000,0.300,1210.000,0.500,1422.000,1.000,666.000,5.000,0
"04/07/08","19:06:34",12926.000,"cc",28154.838,6.00,6,0.100,8201.000,0.200,1445.000,0.300,1185.000,0.500,1409.000,1.000,686.000,5.000,0
"04/07/08","19:06:40",14197.000,"cc",28213.125,6.00,6,0.100,8895.000,0.200,1634.000,0.300,1315.000,0.500,1592.000,1.000,761.000,5.000,0
"04/07/08","19:06:46",13506.000,"cc",28335.475,6.00,6,0.100,8592.000,0.200,1503.000,0.300,1303.000,0.500,1428.000,1.000,680.000,5.000,0
"04/07/08","19:06:52",13902.000,"cc",28304.969,6.00,6,0.100,8648.000,0.200,1621.000,0.300,1283.000,0.500,1610.000,1.000,740.000,5.000,0
"04/07/08","19:06:58",14228.000,"cc",28286.104,6.00,6,0.100,8535.000,0.200,1704.000,0.300,1462.000,0.500,1727.000,1.000,800.000,5.000,0
"04/07/08","19:07:04",14046.000,"cc",28463.807,6.00,6,0.100,8434.000,0.200,1606.000,0.300,1422.000,0.500,1772.000,1.000,812.000,5.000,0
"04/07/08","19:07:10",14470.000,"cc",28350.604,6.00,6,0.100,8810.000,0.200,1707.000,0.300,1420.000,0.500,1722.000,1.000,811.000,5.000,0
"04/07/08","19:07:16",14865.000,"cc",28305.652,6.00,6,0.100,8713.000,0.200,1900.000,0.300,1479.000,0.500,1859.000,1.000,914.000,5.000,0
"04/07/08","19:07:22",14220.000,"cc",28158.287,6.00,6,0.100,8244.000,0.200,1790.000,0.300,1507.000,0.500,1822.000,1.000,857.000,5.000,0
"04/07/08","19:07:28",13436.000,"cc",28401.631,6.00,6,0.100,7835.000,0.200,1688.000,0.300,1459.000,0.500,1688.000,1.000,766.000,5.000,0
"04/07/08","19:07:34",14462.000,"cc",28350.707,6.00,6,0.100,8168.000,0.200,2010.000,0.300,1602.000,0.500,1828.000,1.000,854.000,5.000,0
"04/07/08","19:07:40",13752.000,"cc",28355.756,6.00,6,0.100,7802.000,0.200,1838.000,0.300,1502.000,0.500,1779.000,1.000,831.000,5.000,0
"04/07/08","19:07:46",13126.000,"cc",28244.539,6.00,6,0.100,7743.000,0.200,1673.000,0.300,1400.000,0.500,1590.000,1.000,720.000,5.000,0
"04/07/08","19:07:52",12944.000,"cc",28192.371,6.00,6,0.100,7440.000,0.200,1676.000,0.300,1427.000,0.500,1636.000,1.000,765.000,5.000,0
"04/07/08","19:07:58",14462.000,"cc",28318.891,6.00,6,0.100,8003.000,0.200,1913.000,0.300,1722.000,0.500,1918.000,1.000,906.000,5.000,0
"04/07/08","19:08:04",15418.000,"cc",28389.811,6.00,6,0.100,8163.000,0.200,2092.000,0.300,1882.000,0.500,2196.000,1.000,1085.000,5.000,0
"04/07/08","19:08:10",15804.000,"cc",28248.861,6.00,6,0.100,8405.000,0.200,2257.000,0.300,1933.000,0.500,2213.000,1.000,996.000,5.000,0
"04/07/08","19:08:16",14174.000,"cc",28490.209,6.00,6,0.100,8187.000,0.200,1860.000,0.300,1555.000,0.500,1753.000,1.000,819.000,5.000,0
"04/07/08","19:08:22",13430.000,"cc",28256.813,6.00,6,0.100,7837.000,0.200,1807.000,0.300,1478.000,0.500,1595.000,1.000,713.000,5.000,0
"04/07/08","19:08:28",15550.000,"cc",28148.121,6.00,6,0.100,8189.000,0.200,2148.000,0.300,1882.000,0.500,2269.000,1.000,1062.000,5.000,0
"04/07/08","19:08:34",15391.000,"cc",28429.363,6.00,6,0.100,8117.000,0.200,2166.000,0.300,1744.000,0.500,2247.000,1.000,1117.000,5.000,0
"04/07/08","19:08:40",13452.000,"cc",28358.008,6.00,6,0.100,7507.000,0.200,1760.000,0.300,1521.000,0.500,1811.000,1.000,853.000,5.000,0
"04/07/08","19:08:46",14081.000,"cc",28275.463,6.00,6,0.100,7893.000,0.200,1845.000,0.300,1490.000,0.500,1968.000,1.000,885.000,5.000,0
"04/07/08","19:08:52",13508.000,"cc",28320.211,6.00,6,0.100,7691.000,0.200,1719.000,0.300,1518.000,0.500,1756.000,1.000,824.000,5.000,0
"04/07/08","19:08:58",14213.000,"cc",28378.949,6.00,6,0.100,7725.000,0.200,1852.000,0.300,1636.000,0.500,2071.000,1.000,929.000,5.000,0
"04/07/08","19:09:04",14112.000,"cc",28347.510,6.00,6,0.100,7804.000,0.200,1919.000,0.300,1570.000,0.500,1954.000,1.000,865.000,5.000,0
"04/07/08","19:09:10",13631.000,"cc",28401.158,6.00,6,0.100,7551.000,0.200,1842.000,0.300,1543.000,0.500,1851.000,1.000,844.000,5.000,0
"04/07/08","19:09:16",13040.000,"cc",28258.758,6.00,6,0.100,7761.000,0.200,1622.000,0.300,1417.000,0.500,1550.000,1.000,690.000,5.000,0
"04/07/08","19:09:22",13206.000,"cc",28634.385,6.00,6,0.100,7715.000,0.200,1630.000,0.300,1364.000,0.500,1683.000,1.000,814.000,5.000,0
"04/07/08","19:09:28",13384.000,"cc",28752.498,6.00,6,0.100,8035.000,0.200,1741.000,0.300,1395.000,0.500,1533.000,1.000,680.000,5.000,0
"04/07/08","19:09:34",13934.000,"cc",28292.039,6.00,6,0.100,8001.000,0.200,1913.000,0.300,1461.000,0.500,1746.000,1.000,813.000,5.000,0
"04/07/08","19:09:40",15184.000,"cc",27971.549,6.00,6,0.100,8261.000,0.200,2099.000,0.300,1764.000,0.500,2098.000,1.000,962.000,5.000,0
"04/07/08","19:09:46",15501.000,"cc",28189.762,6.00,6,0.100,8385.000,0.200,2124.000,0.300,1843.000,0.500,2169.000,1.000,980.000,5.000,0
"04/07/08","19:09:52",14343.000,"cc",28367.514,6.00,6,0.100,7809.000,0.200,1877.000,0.300,1712.000,0.500,2071.000,1.000,874.000,5.000,0
"04/07/08","19:09:58",14883.000,"cc",28374.330,6.00,6,0.100,8188.000,0.200,1999.000,0.300,1816.000,0.500,2008.000,1.000,872.000,5.000,0
"04/07/08","19:10:04",16117.000,"cc",28202.938,6.00,6,0.100,8643.000,0.200,2341.000,0.300,1862.000,0.500,2281.000,1.000,990.000,5.000,0
"04/07/08","19:10:10",17610.000,"cc",28232.332,6.00,6,0.100,9030.000,0.200,2640.000,0.300,2294.000,0.500,2572.000,1.000,1074.000,5.000,0
"04/07/08","19:10:16",20444.000,"cc",28179.801,6.00,6,0.100,9975.000,0.200,3194.000,0.300,2758.000,0.500,3195.000,1.000,1322.000,5.000,0
"04/07/08","19:10:22",17788.000,"cc",28282.516,6.00,6,0.100,9285.000,0.200,2710.000,0.300,2328.000,0.500,2476.000,1.000,989.000,5.000,0
"04/07/08","19:10:28",17182.000,"cc",28262.232,6.00,6,0.100,9000.000,0.200,2518.000,0.300,2210.000,0.500,2445.000,1.000,1009.000,5.000,0
"04/07/08","19:10:34",16798.000,"cc",28314.361,6.00,6,0.100,8951.000,0.200,2489.000,0.300,2101.000,0.500,2303.000,1.000,954.000,5.000,0
"04/07/08","19:10:40",16443.000,"cc",28633.123,6.00,6,0.100,8999.000,0.200,2333.000,0.300,1961.000,0.500,2252.000,1.000,898.000,5.000,0
"04/07/08","19:10:46",17947.000,"cc",28365.008,6.00,6,0.100,9277.000,0.200,2627.000,0.300,2309.000,0.500,2664.000,1.000,1070.000,5.000,0
"04/07/08","19:10:52",18455.000,"cc",28082.209,6.00,6,0.100,9466.000,0.200,2832.000,0.300,2421.000,0.500,2646.000,1.000,1090.000,5.000,0
"04/07/08","19:10:58",19258.000,"cc",28145.260,6.00,6,0.100,9894.000,0.200,3008.000,0.300,2536.000,0.500,2717.000,1.000,1103.000,5.000,0
"04/07/08","19:11:04",19132.000,"cc",28493.223,6.00,6,0.100,9858.000,0.200,2906.000,0.300,2577.000,0.500,2742.000,1.000,1049.000,5.000,0
"04/07/08","19:11:10",18572.000,"cc",28491.356,6.00,6,0.100,9671.000,0.200,2719.000,0.300,2382.000,0.500,2693.000,1.000,1107.000,5.000,0
"04/07/08","19:11:16",18641.000,"cc",28165.811,6.00,6,0.100,9716.000,0.200,2880.000,0.300,2353.000,0.500,2633.000,1.000,1059.000,5.000,0
"04/07/08","19:11:22",19621.000,"cc",28142.012,6.00,6,0.100,9924.000,0.200,3031.000,0.300,2572.000,0.500,2963.000,1.000,1131.000,5.000,0
"04/07/08","19:11:28",19156.000,"cc",28435.721,6.00,6,0.100,9903.000,0.200,2916.000,0.300,2497.000,0.500,2781.000,1.000,1059.000,5.000,0
"04/07/08","19:11:34",20751.000,"cc",28320.596,6.00,6,0.100,10568.000,0.200,3265.000,0.300,2784.000,0.500,2941.000,1.000,1193.000,5.000,0
"04/07/08","19:11:40",22760.000,"cc",28176.856,6.00,6,0.100,10959.000,0.200,3679.000,0.300,3197.000,0.500,3508.000,1.000,1417.000,5.000,0
"04/07/08","19:11:46",21192.000,"cc",28459.232,6.00,6,0.100,10339.000,0.200,3367.000,0.300,2984.000,0.500,3247.000,1.000,1255.000,5.000,0
"04/07/08","19:11:52",21781.000,"cc",28500.270,6.00,6,0.100,10566.000,0.200,3640.000,0.300,3055.000,0.500,3252.000,1.000,1268.000,5.000,0
"04/07/08","19:11:58",24668.000,"cc",28148.178,6.00,6,0.100,11102.000,0.200,4217.000,0.300,3684.000,0.500,4073.000,1.000,1592.000,5.000,0
"04/07/08","19:12:04",22163.000,"cc",28299.815,6.00,6,0.100,10431.000,0.200,3610.000,0.300,3208.000,0.500,3480.000,1.000,1434.000,5.000,0
"04/07/08","19:12:10",20857.000,"cc",28354.805,6.00,6,0.100,10024.000,0.200,3352.000,0.300,2891.000,0.500,3278.000,1.000,1312.000,5.000,0
"04/07/08","19:12:16",21930.000,"cc",27949.006,6.00,6,0.100,10428.000,0.200,3610.000,0.300,3051.000,0.500,3516.000,1.000,1325.000,5.000,0
"04/07/08","19:12:22",22147.000,"cc",28369.662,6.00,6,0.100,10437.000,0.200,3478.000,0.300,3158.000,0.500,3647.000,1.000,1427.000,5.000,0
"04/07/08","19:12:28",20197.000,"cc",28439.174,6.00,6,0.100,9870.000,0.200,3206.000,0.300,2758.000,0.500,3176.000,1.000,1187.000,5.000,0
"04/07/08","19:12:34",20068.000,"cc",28298.555,6.00,6,0.100,9702.000,0.200,3082.000,0.300,2835.000,0.500,3167.000,1.000,1282.000,5.000,0
"04/07/08","19:12:40",20600.000,"cc",28283.695,6.00,6,0.100,9849.000,0.200,3227.000,0.300,2895.000,0.500,3251.000,1.000,1378.000,5.000,0
"04/07/08","19:12:46",20293.000,"cc",28436.367,6.00,6,0.100,10017.000,0.200,3090.000,0.300,2761.000,0.500,3216.000,1.000,1209.000,5.000,0
"04/07/08","19:12:52",17776.000,"cc",28352.244,6.00,6,0.100,9426.000,0.200,2765.000,0.300,2202.000,0.500,2445.000,1.000,938.000,5.000,0
"04/07/08","19:12:58",18017.000,"cc",28145.147,6.00,6,0.100,9507.000,0.200,2691.000,0.300,2358.000,0.500,2523.000,1.000,938.000,5.000,0
"04/07/08","19:13:04",19789.000,"cc",28253.717,6.00,6,0.100,10020.000,0.200,3117.000,0.300,2654.000,0.500,2832.000,1.000,1166.000,5.000,0
"04/07/08","19:13:10",20440.000,"cc",28281.377,6.00,6,0.100,10111.000,0.200,3257.000,0.300,2738.000,0.500,3131.000,1.000,1203.000,5.000,0
"04/07/08","19:13:16",20097.000,"cc",28311.940,6.00,6,0.100,10164.000,0.200,3138.000,0.300,2650.000,0.500,2928.000,1.000,1217.000,5.000,0
"04/07/08","19:13:22",18539.000,"cc",28177.254,6.00,6,0.100,9624.000,0.200,2712.000,0.300,2351.000,0.500,2724.000,1.000,1128.000,5.000,0
"04/07/08","19:13:28",18044.000,"cc",28156.686,6.00,6,0.100,9625.000,0.200,2652.000,0.300,2238.000,0.500,2542.000,1.000,987.000,5.000,0
"04/07/08","19:13:34",16916.000,"cc",28362.348,6.00,6,0.100,9709.000,0.200,2341.000,0.300,1864.000,0.500,2163.000,1.000,839.000,5.000,0
"04/07/08","19:13:40",17818.000,"cc",28136.004,6.00,6,0.100,9760.000,0.200,2458.000,0.300,2179.000,0.500,2475.000,1.000,946.000,5.000,0
"04/07/08","19:13:46",18708.000,"cc",28322.762,6.00,6,0.100,10010.000,0.200,2770.000,0.300,2385.000,0.500,2582.000,1.000,961.000,5.000,0
"04/07/08","19:13:52",19137.000,"cc",28366.412,6.00,6,0.100,10123.000,0.200,2846.000,0.300,2452.000,0.500,2712.000,1.000,1004.000,5.000,0
"04/07/08","19:13:58",18846.000,"cc",28345.268,6.00,6,0.100,10162.000,0.200,2665.000,0.300,2348.000,0.500,2638.000,1.000,1033.000,5.000,0
"04/07/08","19:14:04",18849.000,"cc",28210.645,6.00,6,0.100,10378.000,0.200,2682.000,0.300,2328.000,0.500,2538.000,1.000,922.000,5.000,1.000
"04/07/08","19:14:10",17956.000,"cc",28305.586,6.00,6,0.100,10923.000,0.200,2308.000,0.300,1939.000,0.500,2038.000,1.000,748.000,5.000,0
"04/07/08","19:14:16",17989.000,"cc",28335.482,6.00,6,0.100,11248.000,0.200,2264.000,0.300,1833.000,0.500,1922.000,1.000,722.000,5.000,0
"04/07/08","19:14:22",17649.000,"cc",28246.557,6.00,6,0.100,10963.000,0.200,2153.000,0.300,1807.000,0.500,2025.000,1.000,701.000,5.000,0
"04/07/08","19:14:28",18094.000,"cc",28471.217,6.00,6,0.100,10707.000,0.200,2227.000,0.300,1959.000,0.500,2315.000,1.000,886.000,5.000,0
"04/07/08","19:14:34",18963.000,"cc",28126.334,6.00,6,0.100,11104.000,0.200,2467.000,0.300,2142.000,0.500,2352.000,1.000,898.000,5.000,0
"04/07/08","19:14:40",19327.000,"cc",28255.719,6.00,6,0.100,11124.000,0.200,2581.000,0.300,2208.000,0.500,2457.000,1.000,957.000,5.000,0
"04/07/08","19:14:46",18280.000,"cc",28448.209,6.00,6,0.100,10909.000,0.200,2265.000,0.300,1942.000,0.500,2229.000,1.000,935.000,5.000,0
"04/07/08","19:14:52",18703.000,"cc",28499.717,6.00,6,0.100,11088.000,0.200,2398.000,0.300,2029.000,0.500,2233.000,1.000,955.000,5.000,0
"04/07/08","19:14:58",17869.000,"cc",28404.059,6.00,6,0.100,11164.000,0.200,2099.000,0.300,1803.000,0.500,1948.000,1.000,855.000,5.000,0
"04/07/08","19:15:04",17469.000,"cc",28104.438,6.00,6,0.100,10812.000,0.200,2014.000,0.300,1822.000,0.500,1936.000,1.000,885.000,5.000,0
"04/07/08","19:15:10",18953.000,"cc",28462.742,6.00,6,0.100,11628.000,0.200,2409.000,0.300,1911.000,0.500,2181.000,1.000,824.000,5.000,0
"04/07/08","19:15:16",18156.000,"cc",28259.219,6.00,6,0.100,11083.000,0.200,2236.000,0.300,1846.000,0.500,2121.000,1.000,870.000,5.000,0
"04/07/08","19:15:22",16892.000,"cc",28140.932,6.00,6,0.100,10806.000,0.200,1921.000,0.300,1672.000,0.500,1792.000,1.000,701.000,5.000,0
"04/07/08","19:15:28",18354.000,"cc",28365.092,6.00,6,0.100,11173.000,0.200,2202.000,0.300,1933.000,0.500,2164.000,1.000,882.000,5.000,0
"04/07/08","19:15:34",18297.000,"cc",28349.117,6.00,6,0.100,11120.000,0.200,2260.000,0.300,1830.000,0.500,2153.000,1.000,934.000,5.000,0
"04/07/08","19:15:40",17896.000,"cc",28266.635,6.00,6,0.100,10856.000,0.200,2205.000,0.300,1877.000,0.500,2091.000,1.000,867.000,5.000,0
"04/07/08","19:15:46",18352.000,"cc",28167.125,6.00,6,0.100,11213.000,0.200,2212.000,0.300,1919.000,0.500,2118.000,1.000,890.000,5.000,0
"04/07/08","19:15:52",18106.000,"cc",28456.723,6.00,6,0.100,11124.000,0.200,2155.000,0.300,1836.000,0.500,2109.000,1.000,882.000,5.000,0
"04/07/08","19:15:58",17563.000,"cc",28335.506,6.00,6,0.100,10746.000,0.200,2108.000,0.300,1824.000,0.500,2042.000,1.000,843.000,5.000,0
"04/07/08","19:16:04",17927.000,"cc",28337.299,6.00,6,0.100,10778.000,0.200,2191.000,0.300,1894.000,0.500,2177.000,1.000,887.000,5.000,0
"04/07/08","19:16:10",18566.000,"cc",28116.979,6.00,6,0.100,10970.000,0.200,2309.000,0.300,2078.000,0.500,2300.000,1.000,909.000,5.000,0
"04/07/08","19:16:16",18749.000,"cc",28273.813,6.00,6,0.100,10977.000,0.200,2411.000,0.300,2046.000,0.500,2354.000,1.000,961.000,5.000,0
"04/07/08","19:16:22",19263.000,"cc",28359.004,6.00,6,0.100,11230.000,0.200,2461.000,0.300,2105.000,0.500,2398.000,1.000,1069.000,5.000,0
"04/07/08","19:16:28",17405.000,"cc",28530.893,6.00,6,0.100,10616.000,0.200,2173.000,0.300,1728.000,0.500,2011.000,1.000,877.000,5.000,0